Location: Betpouey
(42.8833°N, 0.0333°E)
Time: 05:57:57
(UTC+00:00)

Meteor 2-13 Rocket - Pass Details

Date: 03 July 2021
Orbit: 935 x 958 km, 82.5° (Epoch: 26 July)

Event Time Altitude Azimuth Distance (km) Brightness Sun altitude
Exits shadow 00:31:50 17° 254° (WSW) 2,209 6.1 -23.9°
Maximum altitude 00:34:46 24° 291° (WNW) 1,879 6.1 -23.8°
Drops below altitude 10° 00:39:38 10° 343° (NNW) 2,693 7.7 -23.7°
Sets 00:42:41 0° 358° (N) 3,639 8.8 -23.6°
